星链-31959 (STARLINK-31959 )

导读 | 星芒AI

STARLINK-31959 是 SpaceX Starlink 卫星互联网项目中的一颗低轨卫星,属于第5批部署的星链卫星之一。该卫星于2022年发射,运行在约550公里高度的近地轨道,旨在为全球提供高速互联网服务。它采用先进的相控阵天线和激光通信技术,支持高带宽、低延迟的通信连接。作为星链计划的重要组成部分,STARLINK-31959 有助于扩大卫星网络覆盖范围,提升偏远地区和传统网络难以到达区域的网络接入能力。

基本信息
目录编号:
59925
目录名称:
STARLINK-31959
国际标识:
2024-106D
轨道中心:
EARTH
卫星名称:
星链-31959
卫星全名:
星链-31959 (STARLINK-31959 )
卫星状态:
在轨 (已飞行520 天)
发射日期:
2024-06-01 UTC
国别 :
美国 (US)
星等 :
--
轨道信息
数据来源 国际轨道数据
星历时间: 2025-11-02T16:45:37+0800
20小时前
查看轨道信息
半长轴: 6861.192km
偏心率: 0.0000782
轨道倾角: 43.003°
近地点辐角 265.294°
升交点赤经 327.744°
平近点角 94.782°
近地点: 482.52km
远地点: 483.594km
周期: 94.267分钟
每日圈数: 15.275781
详细信息
固有亮度:
5
最大亮度:
1.5
卫星平台:
Starlink v2.0 mini
覆盖范围:
全球
运营商:
太空探索技术公司
运营商所在国:
美国
制造商(研发单位):
太空探索技术公司
制造商所在国:
美国
使用方式:
暂无
卫星简介
星链(Starlink)计划是由太空探索技术公司(SpaceX)提出的一个巨型低轨卫星互联网星座项目,计划在2019年至2024年间在太空搭建由约1.2万颗卫星组成的“星链”网络,其中1584颗将部署在地球上空550千米处的近地轨道,并从2020年开始工作。该卫星仍在工作。
2D轨道图
3D轨道图
轨道高度分析图
轨道倾角分析图
轨道综合分析图
查看轨道综合分析图